YZ-2 R/B, 41840

Orbit data source: Space-Track

YZ-2 R/B, 41840 is space debris in GEO originally from a launch on Thu, 03 Nov 2016 UTC launched from the Wenchang Satellite Launch Center (WSC). Debris objects in space refer to the collection of defunct objects orbiting the Earth. Examples of debris include non-operational satellites, rocket bodies, and fragments generated from explosions, collisions, or faulty payload assembly.

Not visible in the next 10 days
Identifier
41840, 2016-065C
Orbit
GEO
Country
Flag of CNCN / PRC
Related business
Manufacturer
CALT
Mission
Spacecraft
Bus & Motor
YZ-2, Unknown motor
Mass
~2,000 kg wet, ~2,000 kg dry
Launch date (UTC)
2016-11-03 (10 years ago)
Launch vehicle
Unknown
Launch site
Wenchang Satellite Launch Center (WSC)
Object type
Payload
Rocket body
Debris
Shape & HBR
Cyl, 2.8 m
Radar Cross Section
17.609 m², Large (>1 m²)

Expand to show TLE details & history
Last TLE update: 1 day ago

TLE from 1 day ago
0 YZ-2 R/B
1 41840U 16065C   26266.85118869 -.00000127  00000-0  00000+0 0  9993
2 41840   9.6307  65.4227 0461448 235.0821 120.6458  0.93473657 33778
Epoch: 2026-09-23T20:25Z
TLE epoch observation values (Epoch: 2026-09-23T20:25:42.702Z)
Latitude
0.00001°
Longitude
116.41503°
Altitude
38,900.252 km
Speed
2.93 km/s
True Right ascension
04h 22m 09s
True Declination
0° 00' 00"
Sunlit
Object was in daylight at epoch
Visualization orbit readout
Latitude
Unknown
Longitude
Unknown
Altitude
Unknown
Speed
Unknown
Apparent Right ascension
Unknown
Apparent Declination
Unknown
Sunlit
N/A
Visualization observer readout
Local Sidereal Time
15:17:56
Azimuth
Unknown
Elevation
Unknown
Doppler factor
Unknown
Orbital elements
Apogee altitude
39,846.889 km
Perigee altitude
35,768.975 km
Semi-major axis
44,186.069 km
Eccentricity
0.04614
Inclination
9.6307°
RAAN
65.4227°
Arg. of periapsis
235.0821°
True anomaly
125.06065°
Mean anomaly
120.6458°
Eccentric anomaly
122.86651°
Mean motion
0.23368 °/min
Orbital period
1,540.59 mins
BSTAR
0
Loading maneuver chart data...
Computing Atmospheric mass density...
Loading historical data...
Loading historical data...
Loading historical data...
Loading historical data...
Loading historical data...
Loading historical data...
Loading historical data...
Other satellites on launch #65 in the year 2016 (2016-11-03 UTC)

Documentation

Showing up to 5 results
|